www.pogodaiklimat.ru

Погода и климат >> Архив погоды >> Индия >> Pendra Road


ПОГОДА в Pendra Road

  • Прогноз погоды в Pendra Road
  • Монитор погоды в Pendra Road
  • Климат города

АРХИВ ПОГОДЫ в Pendra Road

Время (UTC), дата Ветер
(напр.,м/с)
 
Видим.   Явления Облачность Т
(С)
Тd
(С)
f
(%)
Тe
(С)
Тes
(С)
Комфортность P
(гПа)
Po
(гПа)
Тmin
(С)
Tmax
(С)
R
(мм)
R24
(мм)
S
(см)
21 8.12 штиль 0 4000 м ясно +13.6 +6.0 60 +13 +13 1016.0 944.2
00 9.12 штиль 0 4000 м ясно +13.2 +5.5 60 +13 +13 1015.6 943.8
03 9.12 штиль 0 4000 м 3/3 600 м
[Sc]
+15.4 +6.0 53 +15 +18 1017.3 945.9 +11.2
06 9.12 штиль 0 4000 м ясно +25.6 +6.0 28 +25 +39 комфорт 1012.7 944.9
09 9.12 штиль 0 4000 м ясно +27.0 +9.8 34 +27 +36 жарко 1011.0 942.5
12 9.12 штиль 0 4000 м ясно +22.4 +13.5 57 +25 +25 комфорт 1011.7 942.3 +27.6
15 9.12 штиль 0 4000 м ясно +18.2 +12.7 70 +18 +18 1014.2 943.7
18 9.12 штиль 0 4000 м ясно +15.8 +11.6 76 +16 +16 1014.9 943.6
21 9.12 штиль 0 4000 м ясно +15.0 +9.1 68 +15 +15 1014.1 942.7
00 10.12 штиль 0 4000 м ясно +14.4 +9.2 71 +14 +14 1014.3 942.9
03 10.12 штиль 0 4000 м мгла ясно +17.4 +11.4 68 +17 +21 1015.6 944.8 +12.9
06 10.12 Ю 2 4000 м 5/3 600 м
[Sc Ac trans]
+22.5 +12.5 53 +25 +31 комфорт 1013.8 944.3
09 10.12 штиль 0 4000 м {гроза, дождь} 6/3 600 м
[Sc Ac trans]
+18.6 +16.7 89 +19 +24 1012.6 942.2 5
12 10.12 штиль 0 4000 м {гроза} 3/3 600 м
[Sc]
+19.0 +17.4 90 +20 +20 1012.1 941.7 +24.2 5
15 10.12 штиль 0 4000 м 5/3 600 м
[Sc Ci fib]
+17.6 +16.0 90 +18 +18 1013.9 943.1 5
18 10.12 штиль 0 4000 м 5/3 600 м
[Sc Ci fib]
+17.4 +15.1 86 +17 +17 1013.9 943.1 5
21 10.12 штиль 0 4000 м слабый дождь 10/5 450 м
[Sc As op]
+17.0 +15.4 90 +17 +17 1013.5 942.6 6
00 11.12 штиль 0 4000 м {дождь} 5/3 600 м
[Sc Ac trans]
+16.0 +15.0 94 +16 +16 1013.7 942.6 9
03 11.12 штиль 0 2000 м дымка {дождь, туман} 3/0
[Ci fib]
+16.4 +15.1 92 +16 +20 1015.8 944.7 +14.1 9
06 11.12 штиль 0 4000 м мгла 6/3 750 м
[Cu med, cong Ac trans]
+22.0 +16.9 73 +26 +34 душно 1014.3 944.5
09 11.12 С 1 4000 м мгла 4/4 600 м
[Sc]
+23.0 +16.4 66 +28 +32 душно 1011.9 942.5
12 11.12 С 1 4000 м 3/3 600 м
[Sc]
+20.0 +15.8 77 +24 +24 комфорт 1012.9 942.8 +23.8
15 11.12 штиль 0 4000 м 3/0
[Ci fib]
+16.4 +13.7 84 +16 +16 1014.8 944.7
18 11.12 штиль 0 4000 м 3/0
[Ci fib]
+15.2 +11.3 78 +15 +15 1016.1 944.8
21 11.12 штиль 0 4000 м 3/0
[Ci fib]
+14.2 +10.2 77 +14 +14 1015.6 944.0
00 12.12 штиль 0 4000 м ясно +12.6 +10.4 86 +12 +12 1016.1 944.0
03 12.12 штиль 0 4000 м мгла ясно +14.4 +12.3 87 +14 +18 1018.2 946.5 +11.0
06 12.12 штиль 0 4000 м ясно +22.8 +13.2 55 +26 +40 жарко 1015.7 946.0
09 12.12 штиль 0 4000 м ясно +24.8 +12.5 46 +27 +35 жарко 1012.6 943.5
12 12.12 штиль 0 4000 м 6/5 600 м
[Sc diur, vesp]
+21.8 +13.9 61 +25 +25 комфорт 1013.2 943.4 +25.6
15 12.12 штиль 0 4000 м 3/1 600 м
[Sc Ci fib]
+17.2 +12.7 75 +17 +17 1016.3 945.4
18 12.12 штиль 0 4000 м 3/0
[Ci fib]
+15.2 +10.5 74 +15 +15 1017.3 945.9
21 12.12 штиль 0 4000 м 3/0
[Ci fib]
+14.4 +10.8 79 +14 +14 1017.6 945.3
00 13.12 штиль 0 4000 м 1/0
[Ci fib]
+13.2 +10.6 84 +13 +13 1017.1 945.1
03 13.12 штиль 0 4000 м мгла ясно +15.0 +12.9 87 +15 +19 1019.3 947.4 +11.9
06 13.12 С 1 4000 м ясно +22.6 +12.5 53 +25 +38 комфорт 1017.0 947.2
09 13.12 штиль 0 4000 м 6/6 600 м
[Cu Sc]
+25.4 +11.1 41 +27 +30 жарко 1013.5 944.7
12 13.12 штиль 0 4000 м 5/5 600 м
[Cu Sc]
+20.8 +11.1 54 +22 +22 комфорт 1015.0 944.9 +26.7
15 13.12 штиль 0 4000 м 8/4 600 м
[Sc Ac trans]
+18.0 +11.3 65 +18 +18 1017.8 946.9
18 13.12 штиль 0 4000 м 5/3 600 м
[Sc Ac trans]
+16.6 +12.1 75 +17 +17 1019.0 947.6
21 13.12 4000 м н/о +14.4 +11.9 85 +14 +14 1018.5 946.8
00 14.12 штиль 0 4000 м 3/3 600 м
[Sc]
+13.8 +12.0 89 +13 +13 1019.1 947.0
03 14.12 штиль 0 2000 м мгла 1/0
[Ac trans]
+15.2 +12.4 83 +15 +18 1020.8 949.1 +11.7
06 14.12 штиль 0 4000 м мгла ясно +21.4 +15.3 68 +25 +39 комфорт 1019.5 949.3
09 14.12 штиль 0 4000 м ясно +23.8 +12.4 49 +26 +34 жарко 1016.4 946.9
12 14.12 штиль 0 4000 м мгла ясно +20.0 +13.3 65 +22 +22 комфорт 1017.9 947.5 +24.1
15 14.12 штиль 0 4000 м ясно +16.8 +11.9 73 +17 +17 1021.1 949.6
18 14.12 штиль 0 4000 м ясно +15.2 +11.3 78 +15 +15 1021.2 949.5
21 14.12 штиль 0 4000 м ясно +13.6 +11.1 85 +13 +13 1020.9 948.8
00 15.12 штиль 0 4000 м ясно +12.4 +9.0 80 +12 +12 1020.8 948.4
03 15.12 штиль 0 4000 м мгла ясно +13.6 +9.5 76 +13 +17 1022.7 950.4 +10.4
06 15.12 штиль 0 4000 м ясно +19.6 +10.4 55 +21 +35 комфорт 1020.7 950.0
09 15.12 С 2 4000 м ясно +23.0 +9.6 43 +25 +31 комфорт 1017.4 947.6
12 15.12 штиль 0 4000 м мгла ясно +19.4 +10.2 55 +20 +20 1018.6 948.0 +23.1
15 15.12 штиль 0 4000 м ясно +15.0 +10.3 73 +15 +15 1022.0 950.0
18 15.12 штиль 0 4000 м ясно +12.8 +8.6 76 +12 +12 1022.1 949.5

 

Местоположение метеостанции Pendra Road (Chhattisgarh, Индия): широта 22.77 долгота 81.90 высота над уровнем моря 625 м.

В архиве по умолчанию представлена погода в Pendra Road за последнюю неделю. Архивные данные за месяц целиком и за предыдущие месяцы, начиная с января 2011 года, Вы можете получить, выбрав интересующий диапазон дат из раскрывающегося списка и нажав кнопку "Ввод!".


*Определитесь, кто Вы:
робот инопланетянин человек

Внимание! Время в таблицах - всемирное. Для получения местного времени необходимо прибавить поправку, которая в Pendra Road равна 5.5 ч.

Смотрите также архив погоды в соседних городах и на ближайших метеорологических станциях:

Погода в Raipur Airport (Chhattisgarh, Индия) (65 км)
Погода в Bilaspur (Chhattisgarh, Индия) (80 км)
Погода в Umaria (Madhya Pradesh, Индия) (134 км)
Погода в Ambikapur (Chhattisgarh, Индия) (145 км)
Погода в Malanjkhand (Madhya Pradesh, Индия) (150 км)
Погода в Mandla (Madhya Pradesh, Индия) (158 км)
Погода в Raipur (Chhattisgarh, Индия) (173 км)
Погода в Sidhi (Madhya Pradesh, Индия) (184 км)
Погода в Durg (Chhattisgarh, Индия) (188 км)
Погода в Rewa (Madhya Pradesh, Индия) (205 км)

Пояснения к столбцам:

Ветер - указаны скорость ветра в м/с - средняя за 10 мин, порывы в срок и между сроками (в фигурных скобках) и направление, откуда дует ветер: С - северный, СВ - северо-восточный, В - восточный, ЮВ - юго-восточный, Ю - южный, ЮЗ - юго-западный, З - западный, СЗ - северо-западный.
Видимость - горизонтальная дальность видимости в метрах или километрах. При видимости от 1 до 10 км при отсутствии осадков обычно наблюдается дымка, при ухудшении видимости до 1 км и менее - туман. В сухую погоду видимость может ухудшаться дымом, пылью или мглою.
Явления - указаны атмосферные явления, наблюдавшиеся в срок или в последний час перед сроком; фигурными скобками обозначены явления, наблюдавшиеся между сроками (за 1-3 часа до срока); квадратными скобками обозначены град или гололедные отложения с указанием их диаметра в мм.
Облачность - указаны через наклонную черту общая и нижняя облачность в баллах и высота нижней границы облаков в метрах; квадратными скобками обозначены формы облаков: Ci - перистые, Cs - перисто-слоистые, Cc - перисто-кучевые, Ac - высококучевые, As - высокослоистые, Sc - слоисто-кучевые, Ns - слоисто-дождевые, Cu - кучевые, Cb - кучево-дождевые. Подробнее классификацию облаков см. в Атласе облаков (PDF).
T - Температура воздуха - температура, измеренная на высоте 2 м над землей.
Td - Температура точки росы - температура, при понижении до которой содержащийся в воздухе водяной пар достигнет насыщения.
f - Относительная влажность воздуха - влажноcть воздуха, измеренная на высоте 2 м над землей.
Te - Эффективная температура - температура, которую ощущает одетый по сезону человек в тени. Характеристика душности погоды. При расчете учитывается влияние влажности воздуха и скорости ветра на теплоощущения человека.
Tes - Эффективная температура на солнце - температура, которую ощущает человек, с поправкой на солнечный нагрев. Характеристика знойности погоды. Зависит от высоты солнца над горизонтом, облачности и скорости ветра. Ночью, в пасмурную погоду, а также при ветре 12 м/с и более поправка равна нулю.
P - Атмосферное давление - приведенное к уровню моря атмосферное давление.
Po - Атмосферное давление - измеренное на уровне метеостанции атмосферное давление.
Tmin - Минимальная температура - минимум температуры воздуха на высоте 2 м над землей.
Tmax - Максимальная температура - максимум температуры воздуха на высоте 2 м над землей.
R - Количество осадков - Количество выпавших осадков за период времени, мм. При наведении курсора мыши на число - период времени, за который выпало указанное количество осадков.
R24 - Количество осадков - Количество выпавших осадков за 24 часа, мм.
S - Снежный покров - Высота снежного покрова, см. При наведении курсора мыши на число - состояние снежного покрова и степень покрытия местности в баллах.